Location: *
(42.0175°N, 9.4056°E)
Time: 03:27:56
(UTC+00:00)

Iridium 2 - Pass Details

Date: 25 August 2019
Orbit: 505 x 517 km, 85.5° (Epoch: 21 October)

Event Time Altitude Azimuth Distance (km) Brightness Sun altitude
Exits shadow 20:13:07 38° 213° (SSW) 787 4.5 -21.5°
Maximum altitude 20:14:20 60° 275° (W) 582 4.1 -21.7°
Drops below altitude 10° 20:18:05 10° 357° (N) 1,731 6.9 -22.2°
Sets 20:20:14 0° 1° (N) 2,623 7.8 -22.5°
